sat.trackr.live / text

‹ back to catalog

STARLINK-32625

NORAD 62154 · 2024-224R

PAYLOAD ACTIVE UNKNOWN

§ Identity

Operator
Country
US
Launch date
2024-11-30
Launch site
AFETR
Launch vehicle
Mass (kg)
RCS (m²)

Purposes: comms

External: N2YO · Heavens-Above · Gunter

§ Orbital elements

Epoch: 2026-09-21T01:05:24.095328Z

Period
94.27 min
Inclination
43.0006°
Eccentricity
0.0001235
Mean motion
15.27603618 rev/d
Perigee alt
482.1 km
Apogee alt
483.8 km
Semi-major
6,861.1 km
B*
3.5922e-4
RAAN
135.1385°
Arg perigee
284.9135°
Mean anomaly
75.1580°
Rev number
10,224

§ Raw data

STARLINK-326251 62154U 24224R   26264.04541777  .00009643  00000+0  35922-3 0  99922 62154  43.0006 135.1385 0001235 284.9135  75.1580 15.27603618102246

JSON: /api/v1/satellites/62154 · /tle

For live sub-satellite position, see the globe view (requires WebGL).

§ Visibility from observer

Set your observer location to see the next 7 days of passes ≥ 10°. The values pass through the URL so the page stays shareable.

No JS? Fill the form by hand. The geolocation button needs JavaScript.